Location: Windsor
(43.2292°N, 89.3015°W)
Time: 16:13:26
(UTC+00:00)

BEESAT - Pass Details

Date: 06 July 2022
Orbit: 700 x 706 km, 98.6° (Epoch: 13 August)

Event Time Altitude Azimuth Distance (km) Brightness Sun altitude
Rises 02:26:37 0° 13° (NNE) 3,106 ? -7.6°
Reaches altitude 10° 02:28:53 10° 14° (NNE) 2,184 ? -7.9°
Maximum altitude 02:33:40 89° 98° (E) 712 ? -8.6°
Drops below altitude 10° 02:38:27 10° 195° (SSW) 2,170 ? -9.2°
Sets 02:40:41 0° 195° (SSW) 3,085 ? -9.5°
